Torna al catalogo

IUS DEB

AttivoHEO
NORAD 26076·DEBRIS·🇺🇸 United States

Lanciato Jul 23, 1999 da Cape Canaveral Space Force Station

Loading…

Prossimi Passaggi (prossime 24 ore)

TLE

AggiornatoSource: Space-Track

Epoca: Sep 6, 2026, 03:32 UTC

1 26076U 99040E   26249.14763407  .00001186  00000-0  37046-3 0  9997
2 26076  28.4092  71.2039 4312651 193.7234 149.3608  6.70735093533519

Traccia IUS DEB in tempo reale con AllMySat

Download on the App Store